DMSP 5D-2 F13 DEB

Satellite information

Favourite Embed

Satellite Type and Status

DEBRISIN ORBIT

Key statistics

Satellite DMSP 5D-2 F13 DEB at a glance.

Uptime

11118

Days in orbit

Revolutions

≈ 14.3

Per day

Orbit

SSO

Sun Synchronous Orbit

Inclination

98.7

Latest

Satellite identification and parameters

Extended collection of information and parameters for DMSP 5D-2 F13 DEB.

Object identification

Identified? True

Debris? True

Object name: DMSP 5D-2 F13 DEB

International designator: 1995-015AB

Object number (NORAD): 40414

Object ID (CCSDS): 40414

Country: UNITED STATES OF AMERICA (US)

Current information (Y/N): Y

RCS size: SMALL

Orbital parameters

Period: 100.636 minutes

Inclination: 98.6534 deg

SMA: 7166.875 km

Apoapsis: 797.712 km

Periapsis: 779.768 km

RAAN: 267.2968 deg

Eccentricy: 0.00125189

Argument of periapsis: 63.7664 deg

Mean anomaly: 296.4804 deg

Mean motion: 14.30895823 rev/day

Mean motion (dot): 0.00003781 rev/day2

B* drag term: 0.0014551025 1/REarth

Two-line elements (TLE)

Creation date: Aug. 31, 2025, 2:26 a.m.

Reference frame: TEME

Reference center: EARTH

Epoch: Aug. 30, 2025, 6:47 p.m. UTC

TLE line 0: 0 DMSP 5D-2 F13 DEB

TLE line 1: 1 40414U 95015AB 25242.78315891 .00003781 00000-0 14551-2 0 9997

TLE line 2: 2 40414 98.6534 267.2968 0012519 63.7664 296.4804 14.30895823545729

Live tracking on map

Real-time ground track for satellite DMSP 5D-2 F13 DEB.

In-orbit conjunctions

A list of the most updated potential collisions computed for object DMSP 5D-2 F13 DEB.

Target Orbit TCA Probability of collision Miss distance Type
IRS 1D SSO 2025-02-14 19:35:25 0.000302563 506.0 (m) PAYLOAD
COSMOS 1937 LEO 2025-02-13 17:27:22 0.0003089315 730.0 (m) PAYLOAD
CZ-6A DEB LEO 2024-11-29 03:04:34 0.0001140877 923.0 (m) DEBRIS
SL-19 R/B SSO 2024-05-29 10:42:32 0.0005299754 142.0 (m) ROCKET BODY

Associated space launch

Military meteorological satellite

DMSP 5D-2 F13 DEB was lifted into orbit during the mission ‘Atlas E | DMSP-5D2 F13’, on board a Atlas E space rocket.

The launch took place on March 24, 1995, 2:05 p.m. from Space Launch Complex 3W.

For more information about the launch, click the button.

Launch to space Atlas E | DMSP-5D2 F13
Atlas E | DMSP-5D2 F13

Agency: N/A

Status: Launch Successful

Launch date: March 24, 1995, 2:05 p.m. UTC

Rocket: Atlas E

Launch pad: Space Launch Complex 3W

Location: Vandenberg SFB, CA, USA

...

Latest news about this satellite

There are no fresh news available about this satellite. Check back as we update our databases every day.


Newsletter sign-up

Weekly statistics, charts and insights to help you stay on top of the space industry.